User: anonymous   Login
Location: Trondheim
(63.4170°N, 10.4170°E)
Time: 09:38:00
(UTC+02:00)
Language:

Iridium 82 - Orbit

View from above orbital plane
View from above orbital plane
View from above satellite
View from above satellite

Ground track
Ground track

The orbit data is extracted from the following two-line orbital elements,

1 25467U 98051A   15126.41762145  .00000341  00000-0  11455-3 0  9999
2 25467 086.3967 345.1095 0001746 088.3391 271.8004 14.34215594875855
Epoch (UTC): 06 May 2015 10:01:22
Eccentricity: 0.0001746
inclination: 86.3967°
perigee height: 776 km
apogee height: 779 km
right ascension of ascending node: 345.1095°
argument of perigee: 88.3391°
revolutions per day: 14.34215594
mean anomaly at epoch: 271.8004°
orbit number at epoch: 87585

The dashed part of the orbit path shows where the satellite is in the earth's shadow,  

DLR